Regional Weather Roundup
Issued by NWS

Home | Current Version | Previous Version | Graphics & Text | Print | Product List | Glossary On
Versions: 1 2 3 4 5 6 7 8 9 10 11 12 13 14 15 16 17 18 19 20 21 22 23 24 25 26 27 28 29 30 31 32 33 34 35 36 37 38 39 40 41 42 43 44 45 46 47 48 49 50
000
ASUS45 KBOU 012107
RWRCO

WEATHER ROUNDUP FOR COLORADO
NATIONAL WEATHER SERVICE DENVER/BOULDER CO
200 PM MST THU DEC 01 2016

NOTE: "FAIR" INDICATES FEW OR NO CLOUDS BELOW 12000 FEET WITH NO
SIGNIFICANT WEATHER AND/OR OBSTRUCTIONS TO VISIBILITY.

COZ001>005-013-030-031-012200-
...NORTHWEST COLORADO...

CITY           SKY/WX    TMP DP  RH WIND       PRES   REMARKS
CRAIG          LGT SNOW  28  19  69 CALM      29.97F
HAYDEN         FAIR      27  12  54 W3        29.96S
MEEKER         FLURRIES  27  22  81 CALM      29.96F
MOUNT WERNER   NOT AVBL
STEAMBOAT SPGS CLOUDY    27  14  59 CALM      29.95S
WALDEN           N/A     23  12  63 S10G17    29.90S WCI  12
$$

COZ006>008-011-012200-
...WEST CENTRAL VALLEYS...

CITY           SKY/WX    TMP DP  RH WIND       PRES   REMARKS
GRAND JUNCTION PTSUNNY   38  16  40 NW7       29.99S
MONTROSE       CLOUDY    35  14  42 NW5       29.98F WCI  31
EAGLE          MOSUNNY   30  12  47 CALM      29.96F
RIFLE          CLOUDY    34  15  46 CALM      29.98F
DELTA          FAIR      41  13  31 CALM      29.97F
NUCLA          FAIR      36  12  38 NW6       29.99F
$$

COZ017>023-064>068-012200-
...SOUTHWEST COLORADO...

CITY           SKY/WX    TMP DP  RH WIND       PRES   REMARKS
DURANGO        FAIR      33  13  43 SW6       29.94F WCI  28
CORTEZ         FAIR      36  14  40 VRB3      29.96F
PAGOSA SPRINGS FAIR      30  11  46 CALM      29.93F
TELLURIDE      FAIR      27  14  59 W14       29.91  WCI  15
WOLF CREEK PAS FAIR      16  12  86 S9        29.93S WCI   4
$$

COZ009-010-012-014-032>034-037-058>063-012200-
...CENTRAL COLORADO...

CITY           SKY/WX    TMP DP  RH WIND       PRES   REMARKS
ASPEN          PTSUNNY   29  13  51 N8        29.89F WCI  21
BUENA VISTA    FAIR      36   4  26 E3        29.84F
COPPER MTN     NOT AVBL
BERTHOUD PASS  CLOUDY     7  -6  56 N7G17     29.82R WCI  -5
COTTONWOOD PAS FAIR      32   5  32 SW15G21   29.85S WCI  22
GUNNISON       FAIR      25  10  53 VRB5      29.94F WCI  19
KREMMLING      FAIR      32  14  47 E3        29.93F
LEADVILLE      PTSUNNY   24   5  44 N6G20     29.84S WCI  17
MONARCH PASS     N/A     14  10  85 W21G28    29.95S WCI  -4
SALIDA         FAIR      38   7  27 SW16G23   29.93S
SUNLIGHT       LGT SNOW N/A N/A N/A SW6       29.91F VSB 3/4
WILKERSON PASS FAIR      25   3  39 SW5       29.86S WCI  19
$$

COZ069>075-012200-
...SAN LUIS VALLEY/SANGRE DE CRISTO MOUNTAINS...

CITY           SKY/WX    TMP DP  RH WIND       PRES   REMARKS
ALAMOSA        FAIR      29   8  41 CALM      29.92F
LA VETA PASS   FAIR      23   7  50 NE14G23   29.87S WCI  11
SAGUACHE       FAIR      30   9  40 S6        29.93S WCI  24
$$

COZ035-036-038>040-012200-
...NORTHERN COLORADO FRONT RANGE...

CITY           SKY/WX    TMP DP  RH WIND       PRES   REMARKS
DENVER INTL AP FAIR      41   5  22 E8        29.88F
DMNS CITY PARK   N/A     42   3  19 E12       29.87F
AURORA         MOSUNNY   40   5  23 E6        29.88F
FRONT RANGE AP NOT AVBL
ERIE MUNI ARPT FAIR      42   2  19 CALM      29.89F
BOULDER MUN AP FAIR      39   9  28 E5        29.88F
CENTENNIAL     FAIR      39   4  23 E5        29.87F
BROOMFIELD     PTSUNNY   41   5  22 E7        29.89S
FORT COLLINS   FAIR      39   7  26 CALM      29.91S
LONGMONT       FAIR      43   6  22 SE3       29.91S
$$

COZ041-046-047-076>085-087-088-012200-
...PIKES PEAK/PALMER DIVIDE AND SOUTHERN FOOTHILLS...

CITY           SKY/WX    TMP DP  RH WIND       PRES   REMARKS
COLO. SPRINGS  FAIR      37   3  24 E6        29.89F
A. F. ACADEMY  FAIR      37   3  24 S6        29.87F
SCHRIEVER AFB  NOT AVBL
ELLICOTT       FAIR     N/A N/A N/A E8        29.88F
FALCON         FAIR      35   2  24 E5        29.89S WCI  31
FORT CARSON    FAIR      38   4  24 E7        29.88F
LIMON            N/A    N/A N/A N/A MISG      29.91F
MONUMENT HILL  FAIR      34   5  29 E5        29.88F WCI  30
TRINIDAD       FAIR      42  10  27 SE6       29.88F
$$

COZ042>045-048>051-090-091-012200-
...NORTHEAST COLORADO...

CITY           SKY/WX    TMP DP  RH WIND       PRES   REMARKS
GREELEY ARPT   FAIR      37   6  27 SE3       29.92
AKRON          CLOUDY    38   9  30 W6        29.92S
BURLINGTON     FAIR      43   7  22 SW9       29.94S
WRAY           FAIR      50  10  20 W7G16     29.92F
STERLING       PTSUNNY   45  16  31 NW13G20   29.91S
HOLYOKE        FAIR      45  12  26 W15G22    29.92S
FORT MORGAN    PTSUNNY   41   6  22 CALM      29.93S
$$

COZ086-089-092>099-012200-
...SOUTHEAST COLORADO...

CITY           SKY/WX    TMP DP  RH WIND       PRES   REMARKS
PUEBLO         FAIR      41   8  25 E5        29.91S
LA JUNTA       FAIR      41  10  28 CALM      29.93F
LAMAR          FAIR      46  10  23 SE5       29.92F
SPRINGFIELD      N/A     42   8  24 SE5       29.92F
$$



USA.gov is the U.S. government's official web portal to all federal, state and local government web resources and services.